N6EQ Weather Reports


Display with metric or nautical units.
time (UTC)temp
F
wind
direction
speed
MPH
gust
MPH
rain 1hr
in
rain 24hr
in
rain mn
in
humidity
%
barometer
mb
20260510211506 103 266 5.0 15.0 0.00 0.00 0.00 7 949.3
20260510210003 102 289 7.0 14.0 0.00 0.00 0.00 7 949.6
20260510204504 103 331 2.0 9.0 0.00 0.00 0.00 7 949.7
20260510203002 103 317 1.0 8.0 0.00 0.00 0.00 7 950.0
20260510201610 102 33 5.0 10.0 0.00 0.00 0.00 7 950.1
20260510200058 101 337 9.0 12.0 0.00 0.00 0.00 7 950.2
20260510194605 101 7.0 13.0 0.00 0.00 0.00 7 950.4
20260510193101 100 6.0 16.0 0.00 0.00 0.00 7 950.5
20260510191558 100 347 8.0 16.0 0.00 0.00 0.00 8 950.5
20260510190052 99 351 10.0 15.0 0.00 0.00 0.00 8 950.6
20260510184553 97 342 8.0 17.0 0.00 0.00 0.00 8 950.8
20260510183049 97 340 13.0 19.0 0.00 0.00 0.00 9 950.9
20260510181604 96 345 10.0 20.0 0.00 0.00 0.00 9 951.0
20260510174542 95 331 10.0 19.0 0.00 0.00 0.00 9 951.0
20260510173040 94 344 11.0 21.0 0.00 0.00 0.00 9 951.0
20260510171546 93 11.0 21.0 0.00 0.00 0.00 9 950.9
20260510170036 92 349 14.0 22.0 0.00 0.00 0.00 9 950.9
20260510164534 92 6 10.0 20.0 0.00 0.00 0.00 10 950.9
20260510163031 91 12.0 20.0 0.00 0.00 0.00 10 950.9
20260510161528 90 14.0 21.0 0.00 0.00 0.00 10 950.8
20260510160036 89 13.0 21.0 0.00 0.00 0.00 11 950.8
20260510154530 88 11.0 17.0 0.00 0.00 0.00 11 950.8
20260510153025 88 8 12.0 21.0 0.00 0.00 0.00 12 950.8
20260510151534 87 344 8.0 17.0 0.00 0.00 0.00 13 950.6
20260510150022 86 1 9.0 17.0 0.00 0.00 0.00 13 950.5
20260510144521 86 46 9.0 15.0 0.00 0.00 0.00 12 950.4
20260510143019 86 335 6.0 14.0 0.00 0.00 0.00 13 950.4
20260510141517 85 7.0 16.0 0.00 0.00 0.00 13 950.2
20260510140015 84 9.0 13.0 0.00 0.00 0.00 13 950.0
20260510134514 84 349 6.0 11.0 0.00 0.00 0.00 13 949.9
20260510133012 83 24 4.0 11.0 0.00 0.00 0.00 13 949.7
20260510131511 83 49 5.0 14.0 0.00 0.00 0.00 13 949.5
20260510130008 83 30 5.0 10.0 0.00 0.00 0.00 13 949.3
20260510124511 81 30 3.0 7.0 0.00 0.00 0.00 13 949.1
20260510123006 79 89 0.0 4.0 0.00 0.00 0.00 13 949.0
20260510121503 79 71 1.0 4.0 0.00 0.00 0.00 13 948.8
20260510120006 79 83 2.0 6.0 0.00 0.00 0.00 13 948.7
20260510114501 79 84 1.0 4.0 0.00 0.00 0.00 13 948.7
20260510113059 79 73 1.0 4.0 0.00 0.00 0.00 13 948.6
20260510111604 81 91 2.0 5.0 0.00 0.00 0.00 12 948.4
20260510110055 81 82 2.0 5.0 0.00 0.00 0.00 12 948.4
20260510104557 81 82 3.0 5.0 0.00 0.00 0.00 12 948.2
20260510103102 80 70 5.0 9.0 0.00 0.00 0.00 12 948.1
20260510101550 80 68 5.0 8.0 0.00 0.00 0.00 12 948.0
20260510100050 82 80 1.0 3.0 0.00 0.00 0.00 12 948.1
20260510094556 83 71 1.0 3.0 0.00 0.00 0.00 11 948.0
20260510093050 84 0.0 2.0 0.00 0.00 0.00 11 947.7
20260510091544 84 0.0 3.0 0.00 0.00 0.00 11 947.6
20260510090044 83 1.0 3.0 0.00 0.00 0.00 12 947.5
20260510084538 85 0.0 3.0 0.00 0.00 0.00 12 947.4
20260510083051 84 0.0 3.0 0.00 0.00 0.00 12 947.3
20260510081540 85 0.0 8.0 0.00 0.00 0.00 12 947.4
20260510080034 85 65 0.0 3.0 0.00 0.00 0.00 12 947.3
20260510074532 86 27 0.0 3.0 0.00 0.00 0.00 12 947.4
20260510073029 87 105 0.0 3.0 0.00 0.00 0.00 12 947.3
20260510071533 88 131 0.0 1.0 0.00 0.00 0.00 11 947.2
20260510070022 89 254 0.0 4.0 0.00 0.00 0.00 11 947.2
20260510064521 88 230 0.0 8.0 0.00 0.00 0.00 11 947.0
20260510063022 89 113 5.0 9.0 0.00 0.00 0.00 11 946.9
20260510061520 89 99 6.0 9.0 0.00 0.00 0.00 11 946.8
20260510060034 89 99 4.0 8.0 0.00 0.00 0.00 11 946.9
20260510054527 90 105 7.0 10.0 0.00 0.00 0.00 11 946.8
20260510053019 91 110 7.0 10.0 0.00 0.00 0.00 11 946.7
20260510051518 91 106 6.0 8.0 0.00 0.00 0.00 11 946.8
20260510050017 92 120 5.0 7.0 0.00 0.00 0.00 11 946.7
20260510044517 92 110 3.0 5.0 0.00 0.00 0.00 11 946.6
20260510043017 93 140 0.0 2.0 0.00 0.00 0.00 12 946.5
20260510041517 91 301 0.0 3.0 0.00 0.00 0.00 12 946.4
20260510040015 93 1.0 3.0 0.00 0.00 0.00 12 946.3
20260510034521 94 0.0 0.0 0.00 0.00 0.00 11 946.1
20260510033015 95 1.0 2.0 0.00 0.00 0.00 11 945.9
20260510031514 96 112 1.0 3.0 0.00 0.00 0.00 11 945.6
20260510030018 98 135 0.0 5.0 0.00 0.00 0.00 10 945.4
20260510024512 98 174 1.0 5.0 0.00 0.00 0.00 10 945.1
20260510023012 99 157 3.0 9.0 0.00 0.00 0.00 10 945.0
20260510021511 101 206 4.0 7.0 0.00 0.00 0.00 9 944.9
20260510020011 102 181 3.0 8.0 0.00 0.00 0.00 9 944.8
20260510014510 102 246 4.0 9.0 0.00 0.00 0.00 9 944.8
20260510013009 102 205 7.0 13.0 0.00 0.00 0.00 9 944.7
20260510011509 103 193 4.0 10.0 0.00 0.00 0.00 9 944.8
20260510010007 103 226 7.0 11.0 0.00 0.00 0.00 9 944.9
20260510004507 103 146 7.0 16.0 0.00 0.00 0.00 9 944.9
20260510003018 103 215 5.0 16.0 0.00 0.00 0.00 9 944.9
20260510001505 103 218 10.0 15.0 0.00 0.00 0.00 9 944.8
20260510000004 103 207 1.0 11.0 0.00 0.00 0.00 9 944.9
20260509234503 103 203 10.0 15.0 0.00 0.00 0.00 9 945.0
20260509233002 103 207 4.0 12.0 0.00 0.00 0.00 9 945.1
20260509231605 103 150 4.0 10.0 0.00 0.00 0.00 10 945.0
20260509224601 103 137 11.0 21.0 0.00 0.00 0.00 10 945.6
20260509223056 103 199 8.0 16.0 0.00 0.00 0.00 9 945.8
20260509221552 103 200 4.0 7.0 0.00 0.00 0.00 9 946.0
20260509220050 102 181 1.0 17.0 0.00 0.00 0.00 9 946.3
20260509214548 103 195 0.0 8.0 0.00 0.00 0.00 9 946.5
20260509213057 102 215 10.0 16.0 0.00 0.00 0.00 9 946.8